Wind_Speed
20 18 15 15 16 16 16 16 15 14 13 13 12 11 12 14 17 18 15 12 10 9 8 9 11 12 13 13 13 15 17 16 15 14 14 14 14 13 11 10 10 11
21 17 15 15 17 17 17 15 15 14 13 14 13 12 12 13 14 15 15 13 11 10 9 9 11 11 12 13 13 14 16 15 13 12 11 12 12 12 12 12 11 11
20 17 16 16 17 18 17 16 15 13 12 14 14 13 13 14 14 15 15 14 12 11 10 10 12 11 11 12 12 13 13 13 12 11 11 11 11 13 14 14 13 13
20 17 16 16 17 18 18 17 15 13 12 13 14 13 13 15 16 16 16 15 13 12 12 12 14 14 14 15 15 15 15 14 14 14 14 14 13 15 17 17 15 15
19 17 16 16 17 18 18 16 14 13 12 12 12 13 14 16 17 17 17 16 15 15 15 16 17 18 18 18 18 18 17 17 17 16 16 16 15 15 17 17 16 16
19 17 16 17 18 19 17 15 14 13 11 11 11 13 15 17 18 19 19 18 18 18 18 19 19 19 19 19 18 18 17 17 17 16 15 16 16 15 14 15 16 16
20 18 18 18 19 18 15 14 14 12 10 9 10 12 15 18 19 20 20 20 19 19 19 19 19 19 19 19 18 17 16 15 15 14 14 13 14 13 13 13 14 17
21 20 19 19 19 17 13 13 14 11 9 8 9 12 15 17 19 20 20 19 19 19 19 18 18 18 18 17 17 16 16 15 14 13 13 13 13 13 13 13 14 16
22 21 21 20 18 15 13 14 14 11 10 10 9 12 15 15 17 19 19 18 19 19 18 18 17 17 17 15 14 14 15 15 14 12 12 12 13 13 13 14 15 16
22 22 24 22 18 15 15 15 15 13 12 11 10 13 16 15 15 17 17 18 18 17 18 17 16 15 15 14 13 13 13 14 13 11 10 11 11 12 13 14 15 16
20 22 22 19 16 16 17 17 16 14 13 12 11 14 16 16 16 16 17 18 17 16 16 17 16 14 13 13 14 14 14 13 12 10 10 10 10 11 11 12 12 13
20 21 20 19 19 19 18 17 16 14 14 13 13 15 17 18 17 18 18 18 17 16 15 15 14 13 11 11 13 15 15 13 11 10 9 10 11 11 10 10 10 11
23 21 22 22 22 21 20 18 16 15 16 17 16 15 18 19 19 20 19 18 17 16 14 13 12 12 11 10 11 13 15 14 11 10 9 10 12 12 12 11 11 11
23 21 22 22 20 19 19 17 17 19 18 18 18 18 19 21 20 20 19 18 17 16 15 14 13 12 12 12 12 12 13 13 12 11 10 10 13 14 14 14 14 14
23 22 22 21 19 18 17 15 17 19 19 18 19 20 21 21 20 19 18 18 18 17 17 16 15 14 14 14 14 13 13 14 14 13 12 12 13 15 16 16 16 16
24 24 23 21 20 19 19 19 18 18 17 17 19 20 20 21 20 19 18 18 18 19 19 18 17 16 14 14 14 14 14 16 16 15 14 14 14 16 18 18 17 17
23 24 23 23 21 20 20 20 19 18 17 18 19 20 19 20 20 19 18 18 18 18 19 18 17 17 16 15 15 15 15 16 17 17 17 16 16 17 18 19 19 18
21 22 22 22 22 20 21 21 19 19 19 19 19 20 20 20 19 19 19 19 19 19 19 19 18 18 17 17 17 16 16 16 17 18 18 18 18 17 17 18 18 18
17 19 20 21 20 20 22 22 22 21 20 20 20 21 20 20 20 20 20 20 21 21 20 20 20 19 19 18 17 16 16 16 18 18 18 17 15 14 15 16 18 18
11 14 17 18 18 19 21 22 23 23 21 21 21 21 21 20 20 20 21 21 22 22 21 22 21 21 20 19 18 17 16 17 17 17 16 15 13 13 15 17 18 17
10 11 13 14 15 16 18 21 24 25 23 22 22 21 21 20 20 20 21 21 22 22 22 22 22 21 21 20 19 19 18 17 16 16 17 16 15 15 16 17 18 17
10 11 11 12 12 12 14 16 19 19 20 22 22 22 21 20 20 20 21 21 21 22 22 21 21 21 21 20 20 19 17 17 18 19 19 19 17 17 18 18 18 17
11 10 10 10 9 8 7 7 8 9 11 14 17 18 19 19 19 19 20 20 21 21 21 21 21 21 21 20 18 17 17 19 20 20 20 20 19 19 19 18 17 15
14 12 10 9 8 6 5 3 2 3 5 7 9 11 12 13 15 16 17 18 19 19 19 19 19 18 17 16 16 17 19 20 20 20 20 20 20 19 18 17 16 14
15 14 12 11 9 6 5 4 3 2 3 4 5 6 8 9 11 12 13 14 14 15 15 15 14 14 15 16 17 19 20 20 20 20 20 20 20 19 18 17 16 15
13 13 12 11 10 8 6 6 6 5 4 4 4 5 6 7 8 9 9 10 11 12 13 13 13 13 15 17 18 19 20 21 22 23 23 22 22 21 20 19 18 17
Wind_Direction
190 188 189 189 191 191 185 181 179 183 189 188 184 175 163 161 170 181 188 187 181 167 149 138 136 132 127 129 138 151 160 164 162 161 163 161 156 155 153 147 139 132
193 195 196 193 191 189 185 183 183 187 187 185 185 176 165 161 164 173 180 180 176 168 154 140 140 140 134 130 129 134 146 153 150 148 153 159 163 162 153 144 137 133
195 198 196 192 188 187 187 187 186 186 181 177 174 166 160 161 161 165 171 173 171 163 151 138 138 140 135 133 131 129 132 131 125 121 125 136 150 152 147 143 140 138
193 193 193 190 188 188 186 184 184 185 180 169 163 160 158 158 159 163 166 169 167 157 147 139 136 135 132 130 127 126 123 117 111 109 112 120 133 144 147 146 147 146
190 193 196 191 188 188 184 183 187 187 180 167 161 162 160 157 158 159 161 164 162 154 145 140 136 133 130 129 127 125 122 118 114 112 112 115 123 139 151 155 156 154
188 194 197 190 185 185 182 186 190 185 178 170 168 170 165 158 156 156 157 157 154 149 144 139 137 135 133 131 130 128 126 124 123 122 121 121 123 130 142 158 165 164
190 193 191 184 180 181 184 191 191 185 184 179 177 181 172 160 156 157 155 154 150 146 144 141 139 139 137 136 135 133 133 134 134 135 135 134 134 132 132 146 164 168
190 187 183 179 177 178 186 192 188 187 192 190 188 191 180 163 159 161 158 155 152 148 146 146 145 144 145 147 148 146 145 145 147 150 152 152 151 148 143 145 157 167
187 184 183 180 176 179 189 191 188 193 198 194 196 195 185 172 167 168 164 159 158 156 155 154 154 153 154 159 164 161 157 156 159 163 165 166 164 162 159 158 161 167
180 182 181 176 174 179 187 190 194 202 200 193 198 197 189 180 175 173 169 166 166 166 165 163 165 166 166 171 176 177 173 168 168 172 176 176 176 173 170 169 170 174
177 177 173 170 176 182 188 194 197 201 202 200 200 199 193 186 180 177 174 173 174 175 174 174 176 181 182 182 184 187 188 183 179 183 188 190 190 187 183 179 179 184
193 186 179 181 190 193 195 195 192 197 210 217 212 204 199 192 185 183 183 182 182 180 181 184 188 194 195 191 190 191 194 195 192 193 200 205 205 203 204 203 196 196
199 192 189 194 198 200 199 195 199 209 216 221 220 211 202 196 192 192 192 191 191 190 189 194 201 205 204 203 200 196 196 199 201 206 214 217 214 213 217 221 217 213
196 193 192 196 200 203 201 203 215 219 213 214 217 209 202 201 200 199 200 200 199 198 199 203 211 216 220 224 222 212 208 209 213 222 228 226 223 222 224 226 225 226
198 196 193 196 203 208 209 209 212 208 201 203 207 203 201 203 203 203 206 206 205 205 207 210 215 223 233 236 233 231 230 227 228 233 233 231 232 232 231 230 229 230
207 205 204 207 214 219 220 214 206 203 201 200 202 201 201 203 205 206 208 210 210 210 212 216 220 227 235 239 238 242 243 238 239 242 240 240 244 243 239 234 229 229
211 214 216 217 219 225 225 215 207 208 207 201 201 204 203 203 207 209 212 216 217 217 219 224 229 234 239 242 244 249 248 242 241 243 244 249 253 250 244 236 228 224
209 212 215 217 217 219 220 215 213 214 211 204 203 205 207 209 211 214 218 221 223 226 228 231 236 241 244 247 248 250 249 245 241 242 247 254 256 249 238 226 217 213
209 211 213 215 214 213 215 216 217 217 214 210 209 209 213 215 216 220 224 226 228 230 233 237 242 244 246 250 250 249 250 247 243 245 249 249 244 232 216 203 201 203
196 203 207 209 209 209 214 217 217 217 216 215 213 213 216 220 222 224 227 230 233 235 239 244 247 246 248 251 250 252 257 252 243 238 234 225 212 199 190 188 193 199
167 184 193 201 206 207 210 214 217 219 219 220 220 220 222 225 228 231 233 235 238 241 245 248 249 248 249 250 252 258 259 247 231 217 209 203 195 184 180 185 191 194
158 172 177 185 195 200 206 212 217 220 224 227 229 231 233 237 240 241 241 242 244 247 249 250 249 249 250 252 254 254 244 223 209 201 197 197 194 185 182 188 192 192
139 151 157 163 167 169 182 201 211 217 224 229 233 235 237 241 243 243 243 245 248 250 250 249 249 249 249 249 245 232 215 203 200 199 197 198 197 192 191 196 200 201
118 124 135 148 152 147 149 161 174 202 221 228 235 239 238 238 239 239 242 246 247 248 248 247 246 243 238 230 217 206 201 199 202 204 205 205 204 201 200 204 208 209
107 109 115 126 132 138 149 153 150 164 207 229 241 244 241 242 242 239 240 242 240 239 238 236 233 226 216 206 200 199 202 206 209 213 214 213 210 207 205 206 209 212
112 114 117 123 128 132 140 155 168 177 187 203 219 231 234 233 233 234 235 231 230 231 227 219 214 210 207 204 202 205 212 217 220 220 218 216 214 214 215 215 215 217
Height
1532 1532 1533 1534 1535 1536 1537 1538 1539 1541 1542 1543 1544 1545 1545 1546 1547 1547 1548 1548 1548 1548 1549 1549 1550 1550 1550 1550 1551 1551 1551 1551 1552 1552 1553 1553 1554 1554 1555 1555 1555 1555
1532 1533 1534 1535 1535 1536 1537 1538 1540 1541 1543 1544 1544 1545 1546 1547 1547 1548 1549 1549 1549 1549 1549 1550 1550 1551 1551 1551 1551 1551 1551 1552 1552 1552 1553 1554 1554 1555 1555 1556 1556 1556
1532 1533 1534 1534 1535 1536 1537 1539 1540 1542 1543 1544 1544 1545 1546 1547 1548 1549 1549 1550 1550 1550 1550 1550 1551 1551 1552 1552 1552 1552 1552 1552 1553 1553 1553 1554 1554 1555 1556 1557 1557 1557
1531 1533 1533 1534 1535 1536 1538 1539 1540 1542 1543 1544 1544 1545 1546 1547 1548 1549 1550 1550 1551 1551 1551 1551 1551 1552 1552 1553 1553 1553 1553 1553 1553 1553 1554 1554 1555 1556 1557 1558 1558 1559
1531 1532 1533 1534 1535 1536 1538 1539 1541 1542 1543 1544 1545 1546 1547 1547 1548 1549 1550 1551 1552 1552 1552 1552 1552 1553 1553 1554 1554 1554 1554 1554 1554 1554 1555 1555 1556 1557 1558 1559 1559 1560
1531 1532 1533 1534 1536 1537 1539 1540 1541 1542 1544 1545 1546 1547 1548 1548 1548 1549 1551 1552 1552 1553 1553 1553 1554 1554 1554 1555 1555 1555 1555 1555 1555 1555 1556 1557 1558 1558 1559 1559 1560 1560
1531 1532 1533 1534 1536 1538 1540 1542 1543 1544 1545 1547 1548 1549 1549 1549 1550 1550 1551 1552 1553 1554 1554 1554 1555 1555 1555 1556 1556 1556 1556 1556 1556 1557 1557 1558 1558 1559 1559 1560 1560 1561
1530 1531 1533 1534 1536 1539 1541 1543 1544 1545 1547 1548 1549 1550 1550 1551 1551 1552 1552 1553 1554 1555 1555 1555 1556 1556 1556 1556 1556 1556 1556 1557 1557 1557 1557 1558 1558 1559 1559 1560 1561 1561
1531 1532 1533 1535 1537 1539 1542 1544 1545 1546 1547 1548 1549 1550 1551 1552 1552 1553 1553 1554 1554 1555 1555 1556 1556 1556 1556 1556 1556 1556 1557 1557 1557 1558 1558 1558 1558 1559 1559 1560 1560 1560
1530 1531 1532 1535 1537 1539 1542 1544 1545 1546 1547 1547 1549 1550 1551 1552 1553 1553 1554 1554 1554 1555 1555 1555 1556 1556 1556 1557 1557 1557 1557 1557 1558 1558 1559 1559 1559 1559 1559 1559 1560 1560
1528 1530 1532 1536 1538 1540 1541 1543 1544 1546 1547 1547 1548 1549 1551 1552 1553 1553 1553 1553 1553 1554 1555 1555 1555 1556 1556 1556 1557 1557 1557 1558 1558 1559 1559 1559 1559 1559 1559 1559 1559 1559
1527 1530 1532 1535 1538 1539 1540 1541 1543 1545 1546 1547 1548 1548 1549 1550 1551 1552 1552 1553 1553 1554 1554 1555 1555 1556 1556 1556 1557 1557 1557 1558 1558 1559 1559 1559 1559 1559 1559 1559 1559 1559
1525 1528 1531 1533 1535 1537 1538 1539 1541 1542 1545 1546 1547 1548 1548 1549 1549 1550 1551 1552 1553 1553 1554 1554 1555 1555 1556 1556 1557 1557 1557 1558 1558 1558 1559 1559 1559 1559 1559 1559 1559 1559
1523 1527 1530 1532 1533 1535 1536 1537 1539 1540 1543 1545 1546 1547 1547 1548 1548 1549 1550 1551 1552 1552 1553 1553 1554 1554 1555 1555 1556 1557 1557 1557 1557 1557 1558 1558 1558 1558 1559 1559 1558 1558
1523 1526 1528 1530 1532 1533 1535 1536 1537 1539 1541 1542 1544 1545 1546 1547 1548 1549 1549 1550 1551 1552 1552 1552 1553 1553 1554 1554 1555 1556 1556 1556 1556 1556 1556 1556 1557 1557 1557 1558 1558 1557
1522 1525 1527 1529 1530 1532 1533 1534 1536 1538 1539 1540 1542 1543 1544 1546 1547 1548 1549 1549 1550 1550 1551 1552 1552 1553 1553 1553 1554 1554 1555 1555 1555 1555 1555 1555 1555 1555 1555 1556 1556 1556
1522 1524 1526 1528 1529 1531 1532 1533 1535 1537 1538 1539 1540 1541 1543 1544 1545 1547 1547 1548 1549 1549 1550 1551 1551 1551 1551 1552 1552 1552 1552 1553 1553 1553 1553 1553 1552 1552 1552 1553 1554 1554
1521 1522 1524 1526 1528 1529 1531 1532 1534 1535 1537 1538 1539 1540 1541 1542 1544 1545 1546 1547 1548 1548 1549 1549 1549 1550 1550 1550 1550 1550 1551 1551 1551 1551 1551 1551 1550 1550 1550 1551 1551 1552
1520 1521 1523 1525 1527 1528 1530 1531 1533 1534 1536 1537 1538 1539 1540 1541 1542 1543 1544 1545 1546 1546 1547 1547 1548 1548 1548 1548 1548 1548 1549 1549 1549 1549 1549 1549 1548 1548 1548 1549 1550 1551
1520 1521 1522 1524 1525 1527 1528 1530 1532 1533 1534 1535 1536 1537 1538 1539 1541 1542 1542 1543 1544 1545 1545 1545 1545 1545 1545 1546 1546 1546 1546 1546 1546 1547 1547 1547 1547 1547 1548 1549 1549 1550
1521 1522 1523 1524 1525 1526 1527 1528 1529 1531 1532 1534 1534 1535 1536 1537 1538 1540 1540 1541 1542 1542 1543 1543 1543 1543 1543 1543 1543 1543 1543 1544 1544 1544 1545 1545 1546 1547 1548 1548 1549 1550
1522 1523 1523 1524 1524 1525 1525 1526 1526 1528 1530 1532 1533 1534 1535 1535 1536 1537 1538 1539 1539 1540 1540 1541 1541 1541 1541 1541 1541 1541 1541 1541 1542 1543 1543 1544 1545 1546 1547 1548 1549 1550
1523 1523 1523 1524 1525 1525 1525 1525 1526 1527 1529 1530 1531 1532 1533 1534 1534 1535 1536 1536 1537 1538 1538 1538 1538 1538 1538 1538 1538 1538 1539 1539 1540 1541 1542 1543 1544 1545 1546 1547 1548 1549
1522 1523 1523 1523 1524 1525 1525 1525 1526 1527 1528 1529 1530 1531 1531 1532 1533 1533 1534 1534 1535 1535 1536 1536 1536 1536 1536 1536 1537 1537 1537 1538 1539 1539 1540 1542 1543 1544 1545 1546 1547 1548
1522 1522 1522 1523 1523 1524 1524 1525 1526 1527 1528 1528 1529 1530 1531 1531 1531 1532 1532 1532 1533 1533 1533 1533 1534 1534 1535 1535 1536 1537 1537 1538 1538 1539 1539 1540 1541 1542 1544 1545 1546 1547
1522 1522 1522 1522 1523 1523 1524 1524 1525 1526 1527 1528 1529 1530 1530 1530 1531 1531 1531 1531 1531 1532 1532 1532 1533 1533 1534 1535 1535 1536 1536 1536 1537 1537 1538 1538 1540 1541 1542 1543 1544 1545